Oroville, CA

11:33 PM PDT on June 28, 2017 (GMT -0700)
Oroville Municipal

Weather History for KOVE - January, 2013

Change the Weather History Date:

Monday, January 14, 2013

  Actual Average Record
Temperature  
Mean Temperature 42 °F -  
Max Temperature 50 °F 55 °F 75 °F (2014)
Min Temperature 33 °F 37 °F 24 °F (1963)
Degree Days  
Heating Degree Days 22    
Moisture  
Dew Point 19 °F    
Average Humidity 43    
Maximum Humidity 72    
Minimum Humidity 32    
Precipitation  
Precipitation 0.00 in - - ()
Sea Level Pressure  
Sea Level Pressure 30.38 in    
Wind  
Wind Speed 9 mph (NW)    
Max Wind Speed 17 mph    
Max Gust Speed 21 mph    
Visibility 10 miles    
Events      
Averages and records for this station are not official NWS values.
T = Trace of Precipitation, MM = Missing Value Source: NWS Daily Summary

Daily Weather History Graph

Daily Weather History Graph

Search for Another Location

Airport or City:

Trip Planner

Search our weather history database for the weather conditions in past years. The results will help you decide how hot, cold, wet, or windy it might be!

Date:

Astronomy

Jan. 14, 2013 Rise Set
Actual Time 7:25 AM PST 5:06 PM PST
Civil Twilight 6:55 AM PST 5:35 PM PST
Nautical Twilight 6:22 AM PST 6:09 PM PST
Astronomical Twilight 5:50 AM PST 6:41 PM PST
Moon 9:03 AM PST (1/14) 8:56 PM PST (1/14)
Length of Visible Light 10h 40m
Length of Day
9h 41m
Waxing Crescent, 12% of the Moon is Illuminated
Jan 14
Waxing Crescent
Jan 18
First Quarter
Jan 26
Full
Feb 3
Last Quarter
Feb 9
New

Hourly Weather History & Observations

Time (PST) Temp. Windchill Dew Point Humidity Pressure Visibility Wind Dir Wind Speed Gust Speed Precip Events Conditions
12:53 AM 37.0 °F 27.4 °F 14.0 °F 39% 30.32 in 10.0 mi North 17.3 mph - N/A   Clear
1:53 AM 36.0 °F 30.3 °F 12.9 °F 39% 30.32 in 10.0 mi Variable 6.9 mph - N/A   Clear
2:53 AM 37.0 °F 31.6 °F 10.9 °F 34% 30.33 in 10.0 mi NNW 6.9 mph - N/A   Clear
3:53 AM 35.1 °F 27.4 °F 12.9 °F 40% 30.33 in 10.0 mi NW 10.4 mph - N/A   Clear
4:53 AM 37.9 °F 32.1 °F 10.9 °F 33% 30.33 in 10.0 mi NNW 8.1 mph - N/A   Clear
5:53 AM 37.9 °F 32.7 °F 10.9 °F 33% 30.35 in 10.0 mi NNW 6.9 mph - N/A   Clear
6:53 AM 36.0 °F 28.5 °F 12.9 °F 39% 30.40 in 10.0 mi NW 10.4 mph - N/A   Clear
7:53 AM 36.0 °F 29.0 °F 14.0 °F 41% 30.41 in 10.0 mi NNW 9.2 mph - N/A   Clear
8:53 AM 39.9 °F 33.9 °F 14.0 °F 35% 30.43 in 10.0 mi NW 9.2 mph - N/A   Clear
9:53 AM 39.0 °F 34.0 °F 19.9 °F 46% 30.44 in 10.0 mi NW 6.9 mph - N/A   Clear
10:53 AM 42.1 °F 37.1 °F 19.9 °F 41% 30.43 in 10.0 mi NW 8.1 mph 16.1 mph N/A   Clear
11:53 AM 45.0 °F 40.1 °F 19.9 °F 37% 30.40 in 10.0 mi NW 9.2 mph 19.6 mph N/A   Clear
12:53 PM 46.9 °F - 19.0 °F 33% 30.38 in 10.0 mi NW 11.5 mph 20.7 mph N/A   Clear
2:53 PM 50.0 °F - 21.0 °F 32% 30.38 in 10.0 mi NW 9.2 mph 18.4 mph N/A   Clear
3:53 PM 50.0 °F - 23.0 °F 35% 30.39 in 10.0 mi NNW 8.1 mph - N/A   Clear
4:53 PM 46.0 °F 43.9 °F 27.0 °F 47% 30.38 in 10.0 mi NW 4.6 mph - N/A   Clear
5:53 PM 44.1 °F 40.1 °F 25.0 °F 47% 30.38 in 10.0 mi NW 6.9 mph - N/A   Clear
6:53 PM 44.1 °F 40.8 °F 23.0 °F 43% 30.39 in 10.0 mi North 5.8 mph - N/A   Clear
7:53 PM 39.9 °F 36.7 °F 24.1 °F 53% 30.38 in 10.0 mi WNW 4.6 mph - N/A   Clear
8:53 PM 39.9 °F 36.7 °F 23.0 °F 51% 30.38 in 10.0 mi NW 4.6 mph - N/A   Clear
9:53 PM 37.0 °F 34.5 °F 24.1 °F 59% 30.38 in 10.0 mi WNW 3.5 mph - N/A   Clear
10:53 PM 36.0 °F 29.6 °F 25.0 °F 64% 30.40 in 10.0 mi SSE 8.1 mph - N/A   Clear
11:53 PM 33.1 °F 30.0 °F 25.0 °F 72% 30.42 in 10.0 mi ESE 3.5 mph - N/A   Clear